LIRPLIMJ

Guest
Details From LIRP - PISA
To LIMJ - Genova Sestri
Flight Number -
Tags generated
Created
Modified
Stats Distance 80 nm / 149 km
Max Altitude 5,500 ft / 1,676 m
Waypoints 3
Social Downloads 10
Likes 0
Share VATSIM

Download

Looking for another format? Having issues loading an existing format? Contact us
Advertisement - Login to hide

Notes

Basic altitude profile: - Ascent Rate: 2500ft/min - Ascent Speed: 250kts - Cruise Altitude: 35000ft - Cruise Speed: 420kts - Descent Rate: 1500ft/min - Descent Speed: 250kts Options: - Use NATs: yes - Use PACOTS: yes - Use low airways: yes - Use high airways: yes

Route

LIRP LUKIM LIMJ

ID Type Via Altitude Latitude Longitude Leg Dist Tot Dist Heading (true) Name
O LIRP APT - 0 ft / 0 m 43.68388˚ 10.39272˚ - 0 nm - PISA
LUKIM FIX - 5,500 ft / 1,676 m 44.14000˚ 9.30861˚ 54 nm 54 nm 301° / 300° -
O LIMJ APT - 0 ft / 0 m 44.41196˚ 8.84187˚ 25 nm 80 nm 309° / 309° Genova Sestri

Altitude Profile

Advertisement - Login to hide

LIRP

Details ICAO LIRP (PSA)
Name PISA
Region Italy
Timezone Europe/Rome (UTC+1.0)
Stats Elevation 6 ft / 2 m (AMSL)
Location 43.683883° 10.392724°
Runways 2
Magnetic Variation 2.703° E

METAR

LIRP 130045Z 11004KT 9999 -RA SCT020 SCT040 10/09 Q1015 NOSIG

Decode

TAF

TAF LIRP 122300Z 1300/1324 15005KT 9999 SCT030 SCT050 TEMPO 1300/1306 22010KT 5000 RA BR TEMPO 1318/1324 3000 RA BR

Decode

Departure Runways

ID Width Length Bearing (true) Bearing (mag) Surface Threshold Offset Overrun Length
04L 141 ft / 43 m 9,158 ft / 2,791 m 36.70° 34.00° Asphalt 979 ft / 298 m 0 ft / 0 m
04R 148 ft / 45 m 9,819 ft / 2,993 m 36.72° 34.02° Asphalt 490 ft / 149 m 0 ft / 0 m
22L 148 ft / 45 m 9,819 ft / 2,993 m 216.73° 214.03° Asphalt 843 ft / 257 m 0 ft / 0 m
22R 141 ft / 43 m 9,158 ft / 2,791 m 216.72° 214.02° Asphalt 0 ft / 0 m 0 ft / 0 m

LIMJ

Details ICAO LIMJ (GOA)
Name Genova Sestri
Region Italy
Timezone Unknown (UTC+0.0)
Stats Elevation 13 ft / 4 m (AMSL)
Location 44.411957° 8.841866°
Runways 1
Magnetic Variation 2.387° E

METAR

LIMJ 130120Z 04003KT 360V060 9999 FEW045 10/06 Q1015

Decode

TAF

TAF LIMJ 122300Z 1300/1324 VRB05KT 9999 SCT035

Decode

Destination Runways

ID Width Length Bearing (true) Bearing (mag) Surface Threshold Offset Overrun Length
10 148 ft / 45 m 9,574 ft / 2,918 m 105.39° 103.00° Asphalt 0 ft / 0 m 0 ft / 0 m
28 148 ft / 45 m 9,574 ft / 2,918 m 285.41° 283.02° Asphalt 538 ft / 164 m 0 ft / 0 m

Approach Navaids

Runway Type Ident Frequency Range Bearing (true) Bearing (mag) Slope Elevation
28 Localiser GSE 109.30 MHz 18 nm / 33 km 287.30° 284.91° - 9 ft / 3 m (AMSL)
28 Glidescope GSE 109.30 MHz 10 nm / 19 km 287.30° 284.91° 3.17° 26 ft / 8 m (AMSL)
28 DME GSE 109.30 MHz 18 nm / 33 km - - - 26 ft / 8 m (AMSL)

Popular Alternatives